User: anonymous   Login
Location: Unspecified
(0.0000°N, 0.0000°E)
Time: 16:03:33
(UTC+00:00)
Language:

GOES 7 - Orbit

View from above orbital plane
View from above orbital plane
View from above satellite
View from above satellite

Ground track
Ground track

The orbit data is extracted from the following two-line orbital elements,

1 17561U 87022A   19015.85479219 -.00000357 +00000-0 +00000-0 0  9996
2 17561 015.0432 359.9053 0008442 328.5467 218.5867 00.99901864099892
Epoch (UTC): 15 January 2019 20:30:54
Eccentricity: 0.0008442
inclination: 15.0432°
perigee height: 35854 km
apogee height: 35926 km
right ascension of ascending node: 359.9053°
argument of perigee: 328.5467°
revolutions per day: 0.99901864
mean anomaly at epoch: 218.5867°
orbit number at epoch: 9989

The dashed part of the orbit path shows where the satellite is in the earth's shadow,  

DLR